Regional Weather Roundup
Issued by NWS

Home | Current Version | Previous Version | Text Only | Print | Product List | Glossary On
Versions: 1 2 3 4 5 6 7 8 9 10 11 12 13 14 15 16 17 18 19 20 21 22 23 24 25 26 27 28 29 30 31 32 33 34 35 36 37 38 39 40 41 42 43 44 45 46 47 48 49 50
000
ASUS43 KLSX 270310
RWRMO

WEATHER SUMMARY FOR MISSOURI
NATIONAL WEATHER SERVICE SPRINGFIELD MO
1000 PM CDT TUE JUL 26 2016

NOTE: "FAIR" INDICATES FEW OR NO CLOUDS BELOW 12,000 FEET WITH NO
       SIGNIFICANT WEATHER AND/OR OBSTRUCTIONS TO VISIBILITY.
       CURRENT SKY AND/OR WEATHER CONDITIONS ARE NOT AVAILABLE FOR
       CHILLICOTHE AND FARMINGTON.

MOZ001>031-035>038-043-044-053-054-270400-
...NORTHERN AND WESTERN MISSOURI...

CITY           SKY/WX    TMP DP  RH WIND       PRES   REMARKS
KANSAS CTY INT PTCLDY    78  67  68 SE8       30.01R
KANSAS C DTWN  CLEAR     80  67  64 E5        29.99R
LEE`S SUMMIT   CLEAR     78  69  73 E5        30.01S
ST JOSEPH      CLEAR     78  66  66 E7        29.99F
CHILLICOTHE      N/A     73  69  87 CALM      30.02R
KIRKSVILLE     CLEAR     70  65  84 CALM      30.03R

$$
MOZ066>068-077>081-088>096-101>105-270400-
...SOUTHWEST MISSOURI...

CITY           SKY/WX    TMP DP  RH WIND       PRES   REMARKS
SPRINGFIELD    MOCLDY    75  72  90 CALM      30.01R
JOPLIN         CLOUDY    75  74  96 E5        29.98S
BRANSON        CLOUDY    73  73 100 CALM      30.03R FOG

$$
MOZ032>034-039>042-045>050-055>058-069>072-270400-
...CENTRAL MISSOURI...

CITY           SKY/WX    TMP DP  RH WIND       PRES   REMARKS
COLUMBIA       CLOUDY    77  75  93 SE3       30.00S
JEFFERSON CITY PTCLDY    76  72  87 CALM      29.98S
ROLLA          PTCLDY    74  72  93 CALM      30.00R
SEDALIA        CLOUDY    77  71  82 NE5       30.00S
WHITEMAN AFB   PTCLDY    74  74 100 N3        29.98S
OSAGE BEACH    CLOUDY    75  73  93 E3        30.01R

$$
MOZ051-052-059>065-270400-
...EAST CENTRAL MISSOURI...

CITY           SKY/WX    TMP DP  RH WIND       PRES   REMARKS
ST LOUIS INTL  MOCLDY    82  75  79 CALM      30.00R
SPIRIT OF STL  CLOUDY    78  75  90 CALM      29.98R
ST CHARLES     PTCLDY    78  76  93 N3        29.98R

$$
MOZ072>076-082>087-097>100-106>115-270400-
...SOUTH CENTRAL AND SOUTHEAST MISSOURI...

CITY           SKY/WX    TMP DP  RH WIND       PRES   REMARKS
CAPE GIRARDEAU PTCLDY    76  74  93 SE3       29.99R
FARMINGTON     FOG       72  72 100 CALM      30.03R VSB 1/4
POPLAR BLUFF   MOCLDY    76  73  91 S5        29.99R
WEST PLAINS    PTCLDY    74  71  91 CALM      30.04F

$$




USA.gov is the U.S. government's official web portal to all federal, state and local government web resources and services.